Regional Weather Roundup
Issued by NWS

Home | Current Version | Previous Version | Text Only | Print | Product List | Glossary Off
Versions: 1 2 3 4 5 6 7 8 9 10 11 12 13 14 15 16 17 18 19 20 21 22 23 24 25 26 27 28 29 30 31 32 33 34 35 36 37 38 39 40 41 42 43 44 45 46 47 48 49 50

000
ASUS43 KLSX 011607
RWRMO

WEATHER SUMMARY FOR MISSOURI
NATIONAL WEATHER SERVICE SPRINGFIELD MO
1100 AM CDT MON SEP 01 2014

NOTE: "FAIR" INDICATES FEW OR NO CLOUDS BELOW 12,000 FEET WITH NO
       SIGNIFICANT WEATHER AND/OR OBSTRUCTIONS TO VISIBILITY.
       CURRENT SKY AND/OR WEATHER CONDITIONS ARE NOT AVAILABLE FOR
       CHILLICOTHE AND FARMINGTON.

MOZ001>031-035>038-043-044-053-054-011700-
...NORTHERN AND WESTERN MISSOURI...

CITY           SKY/WX    TMP DP  RH WIND       PRES   REMARKS
KANSAS CTY INT MOSUNNY   73  67  81 SW15      29.89R
KANSAS C DTWN  MOSUNNY   75  65  70 W12       29.88R
ST JOSEPH      PTSUNNY   73  66  78 W13       29.87R
CHILLICOTHE      N/A     72  65  78 SW10G18   29.87S
KIRKSVILLE     CLOUDY    72  64  76 W16G26    29.87R

$$
MOZ066>068-077>081-088>096-101>105-011700-
...SOUTHWEST MISSOURI...

CITY           SKY/WX    TMP DP  RH WIND       PRES   REMARKS
SPRINGFIELD    CLOUDY    67  65  93 S17       29.99S
JOPLIN         CLOUDY    73  64  73 SE15G23   29.95F

$$
MOZ032>034-039>042-045>050-055>058-069>072-011700-
...CENTRAL MISSOURI...

CITY           SKY/WX    TMP DP  RH WIND       PRES   REMARKS
COLUMBIA       CLOUDY    71  65  81 W12       29.88R
JEFFERSON CITY CLOUDY    73  64  73 W10       29.88R
ROLLA          LGT RAIN  68  65  90 S18G28    29.85F
SEDALIA        CLOUDY    72  63  73 SW20G29   29.90R
WHITEMAN AFB   CLOUDY    71  65  80 SW16      29.89R
OSAGE BEACH    CLOUDY    70  64  83 SW5       29.90R

$$
MOZ051-052-059>065-011700-
...EAST CENTRAL MISSOURI...

CITY           SKY/WX    TMP DP  RH WIND       PRES   REMARKS
ST LOUIS INTL  CLOUDY    79  65  62 SW20G26   29.86R
SPIRIT OF STL  CLOUDY    75  64  68 SW8       29.85R
ST CHARLES     CLOUDY    79  63  57 SW13G21   29.85R

$$
MOZ072>076-082>087-097>100-106>115-011700-
...SOUTH CENTRAL AND SOUTHEAST MISSOURI...

CITY           SKY/WX    TMP DP  RH WIND       PRES   REMARKS
CAPE GIRARDEAU CLOUDY    79  72  79 SW16G22   29.97S
FARMINGTON     CLOUDY    73  64  73 SW17G24   29.97S
POPLAR BLUFF   CLOUDY    80  68  66 SW13      30.00R
WEST PLAINS    LGT RAIN  70  65  84 N3        30.08R

$$


USA.gov is the U.S. government's official web portal to all federal, state and local government web resources and services.